TimeCEST,TemperatureF,Dew PointF,Humidity,Sea Level PressureIn,VisibilityMPH,Wind Direction,Wind SpeedMPH,Gust SpeedMPH,PrecipitationIn,Events,Conditions,WindDirDegrees,DateUTC
12:20 AM,82.4,48.2,30,29.89,-9999.0,SSW,8.1,-,N/A,,Clear,200,2013-08-06 22:20:00
12:50 AM,80.6,48.2,32,29.86,-9999.0,SW,6.9,-,N/A,,Clear,220,2013-08-06 22:50:00
1:20 AM,78.8,46.4,32,29.86,-9999.0,SW,5.8,-,N/A,,Clear,230,2013-08-06 23:20:00
1:50 AM,80.6,46.4,30,29.86,-9999.0,SSW,6.9,-,N/A,,Clear,210,2013-08-06 23:50:00
2:20 AM,78.8,44.6,30,29.86,-9999.0,SW,5.8,-,N/A,,Clear,230,2013-08-07 00:20:00
2:50 AM,77.0,46.4,34,29.86,-9999.0,SW,3.5,-,N/A,,Clear,230,2013-08-07 00:50:00
3:20 AM,77.0,44.6,32,29.86,-9999.0,SW,3.5,-,N/A,,Clear,220,2013-08-07 01:20:00
3:50 AM,77.0,44.6,32,29.86,-9999.0,SW,4.6,-,N/A,,Clear,220,2013-08-07 01:50:00
4:20 AM,75.2,44.6,34,29.86,-9999.0,SW,6.9,-,N/A,,Clear,230,2013-08-07 02:20:00
5:20 AM,75.2,42.8,31,29.86,-9999.0,SSW,9.2,-,N/A,,Clear,210,2013-08-07 03:20:00
5:50 AM,75.2,42.8,31,29.86,-9999.0,SSW,8.1,-,N/A,,Clear,210,2013-08-07 03:50:00
6:50 AM,77.0,42.8,29,29.86,-9999.0,Variable,1.2,-,N/A,,Clear,0,2013-08-07 04:50:00
7:20 AM,75.2,46.4,36,29.89,-9999.0,North,3.5,-,N/A,,Clear,350,2013-08-07 05:20:00
7:50 AM,75.2,46.4,36,29.89,-9999.0,SSW,8.1,-,N/A,,Clear,200,2013-08-07 05:50:00
8:20 AM,77.0,50.0,39,29.89,-9999.0,WSW,5.8,-,N/A,,Clear,240,2013-08-07 06:20:00
8:50 AM,80.6,48.2,32,29.89,-9999.0,SW,6.9,-,N/A,,Clear,220,2013-08-07 06:50:00
9:20 AM,82.4,50.0,32,29.89,-9999.0,Variable,3.5,-,N/A,,Clear,0,2013-08-07 07:20:00
9:50 AM,86.0,51.8,31,29.89,-9999.0,WSW,3.5,-,N/A,,Clear,250,2013-08-07 07:50:00
10:20 AM,87.8,51.8,29,29.89,-9999.0,Variable,2.3,-,N/A,,Clear,0,2013-08-07 08:20:00
10:50 AM,89.6,53.6,29,29.89,-9999.0,North,3.5,-,N/A,,Clear,350,2013-08-07 08:50:00
11:20 AM,91.4,55.4,29,29.89,-9999.0,Variable,3.5,-,N/A,,Clear,0,2013-08-07 09:20:00
11:50 AM,93.2,51.8,24,29.89,-9999.0,ENE,8.1,-,N/A,,Clear,60,2013-08-07 09:50:00
12:20 PM,95.0,55.4,26,29.89,-9999.0,East,6.9,-,N/A,,Clear,80,2013-08-07 10:20:00
12:50 PM,96.8,51.8,22,29.86,-9999.0,East,5.8,-,N/A,,Clear,90,2013-08-07 10:50:00
1:20 PM,100.4,46.4,16,29.86,-9999.0,South,8.1,-,N/A,,Clear,180,2013-08-07 11:20:00
1:50 PM,100.4,46.4,16,29.86,-9999.0,South,4.6,-,N/A,,Clear,180,2013-08-07 11:50:00
2:20 PM,100.4,46.4,16,29.86,6.2,South,4.6,-,N/A,,Partly Cloudy,170,2013-08-07 12:20:00
2:50 PM,102.2,46.4,15,29.86,6.2,Variable,4.6,-,N/A,,Partly Cloudy,0,2013-08-07 12:50:00
3:20 PM,102.2,42.8,13,29.83,6.2,South,8.1,-,N/A,,Partly Cloudy,170,2013-08-07 13:20:00
3:50 PM,100.4,50.0,18,29.86,6.2,NNW,4.6,-,N/A,,Partly Cloudy,330,2013-08-07 13:50:00
4:20 PM,102.2,46.4,15,29.86,6.2,SSW,12.7,-,N/A,,Partly Cloudy,210,2013-08-07 14:20:00
4:50 PM,100.4,46.4,16,29.86,-9999.0,SSW,15.0,-,N/A,,Clear,210,2013-08-07 14:50:00
5:20 PM,98.6,46.4,17,29.86,-9999.0,SSW,10.4,-,N/A,,Clear,200,2013-08-07 15:20:00
5:50 PM,96.8,48.2,19,29.86,-9999.0,SSE,5.8,-,N/A,,Clear,160,2013-08-07 15:50:00
6:20 PM,96.8,48.2,19,29.83,-9999.0,SSE,6.9,-,N/A,,Clear,160,2013-08-07 16:20:00
6:50 PM,93.2,53.6,26,29.83,-9999.0,SSE,4.6,-,N/A,,Clear,150,2013-08-07 16:50:00
7:20 PM,95.0,51.8,23,29.83,-9999.0,South,5.8,-,N/A,,Clear,180,2013-08-07 17:20:00
7:50 PM,91.4,57.2,31,29.83,-9999.0,SE,4.6,-,N/A,,Clear,140,2013-08-07 17:50:00
8:20 PM,87.8,62.6,43,29.83,-9999.0,ESE,8.1,-,N/A,,Clear,120,2013-08-07 18:20:00
8:50 PM,87.8,60.8,40,29.83,-9999.0,SE,6.9,-,N/A,,Clear,140,2013-08-07 18:50:00
9:20 PM,89.6,60.8,38,29.86,-9999.0,South,5.8,-,N/A,,Clear,170,2013-08-07 19:20:00
9:50 PM,91.4,51.8,26,29.86,-9999.0,South,10.4,-,N/A,,Clear,170,2013-08-07 19:50:00
10:20 PM,87.8,51.8,29,29.86,-9999.0,SSE,5.8,-,N/A,,Clear,160,2013-08-07 20:20:00
10:50 PM,89.6,48.2,24,29.86,-9999.0,South,9.2,-,N/A,,Clear,170,2013-08-07 20:50:00
11:20 PM,89.6,46.4,22,29.86,-9999.0,South,10.4,-,N/A,,Clear,170,2013-08-07 21:20:00
11:50 PM,87.8,48.2,25,29.86,-9999.0,South,8.1,-,N/A,,Clear,170,2013-08-07 21:50:00